Location: Balsareny
(41.8670°N, 1.8830°E)
Time: 00:33:39
(UTC+02:00)

Envisat - Pass Details

Date: 22 August 2024
Orbit: 762 x 764 km, 98.3° (Epoch: 08 September)

Event Time Altitude Azimuth Distance (km) Brightness Sun altitude
Rises 06:15:20 0° 359° (N) 3,235 6.6 -10.0°
Reaches altitude 10° 06:18:05 10° 345° (NNW) 2,304 5.6 -9.6°
Maximum altitude 06:21:55 22° 296° (WNW) 1,611 4.3 -8.9°
Enters shadow 06:25:44 10° 246° (WSW) 2,284 4.8 -8.3°
